Location: Newark
(46.1333°N, 13.0333°E)
Time: 07:54:42
(UTC+00:00)

ISS - Pass Details

Date: 13 November 2019
Orbit: 411 x 421 km, 51.6° (Epoch: 06 December)

Event Time Altitude Azimuth Distance (km) Brightness Sun altitude
Exits shadow 04:47:08 11° 226° (SW) 1,454 -1.4 -13.6°
Drops below altitude 10° 04:47:54 10° 213° (SSW) 1,500 -1.2 -13.5°
Sets 04:51:23 0° 174° (S) 2,355 0.3 -12.9°
